Alexandria, Egypt

12:12 PM EET on February 25, 2017 (GMT +0200)
Alexandria International

Weather History for HEAX - November, 2013

Change the Weather History Date:

Friday, November 22, 2013

  Actual Average Record
Temperature  
Mean Temperature 71 °F -  
Max Temperature 82 °F 67 °F 82 °F (1999)
Min Temperature 60 °F 51 °F 51 °F (2000)
Cooling Degree Days 6    
Growing Degree Days 21 (Base 50)    
Moisture  
Dew Point 55 °F    
Average Humidity 64    
Maximum Humidity 88    
Minimum Humidity 29    
Precipitation  
Precipitation 0.00 in 0.06 in - ()
Sea Level Pressure  
Sea Level Pressure 29.85 in    
Wind  
Wind Speed 4 mph ()    
Max Wind Speed 8 mph    
Max Gust Speed -    
Visibility 4.6 miles    
Events      
Averages and records for this station are not official NWS values.
T = Trace of Precipitation, MM = Missing Value Source: Averaged Metar Reports

Daily Weather History Graph

Daily Weather History Graph

Search for Another Location

Airport or City:

Trip Planner

Search our weather history database for the weather conditions in past years. The results will help you decide how hot, cold, wet, or windy it might be!

Date:

Astronomy

Nov. 22, 2013 Rise Set
Actual Time 6:33 AM EET 4:59 PM EET
Civil Twilight 6:07 AM EET 5:25 PM EET
Nautical Twilight 5:37 AM EET 5:54 PM EET
Astronomical Twilight 5:08 AM EET 6:23 PM EET
Moon 9:08 PM EET (11/22) 10:07 AM EET (11/22)
Length of Visible Light 11h 17m
Length of Day
10h 25m
Waning Gibbous, 80% of the Moon is Illuminated
Nov 22
Waning Gibbous
Nov 25
Last Quarter
Dec 3
New
Dec 9
First Quarter
Dec 17
Full

Hourly Weather History & Observations

Time (EET) Temp. Heat Index Dew Point Humidity Pressure Visibility Wind Dir Wind Speed Gust Speed Precip Events Conditions
12:00 AM 64.4 °F - 59.0 °F 83% 29.92 in - ESE 2.3 mph - N/A   Clear
1:00 AM 62.6 °F - 57.2 °F 82% 29.92 in - South 2.3 mph - N/A   Clear
2:00 AM 62.6 °F - 57.2 °F 82% 29.92 in - SE 2.3 mph - N/A   Clear
3:00 AM 62.6 °F - 59.0 °F 88% 29.89 in - ESE 4.6 mph - N/A   Clear
4:00 AM 62.6 °F - 57.2 °F 82% 29.89 in - ESE 3.5 mph - N/A   Clear
5:00 AM 60.8 °F - 57.2 °F 88% 29.86 in - SE 2.3 mph - N/A   Clear
6:00 AM 60.8 °F - 57.2 °F 88% 29.86 in - ESE 2.3 mph - N/A   Clear
7:00 AM 60.8 °F - 57.2 °F 88% 29.86 in 1.9 mi SE 6.9 mph - N/A   Mist
8:00 AM 62.6 °F - 57.2 °F 82% 29.89 in 1.9 mi East 3.5 mph - N/A   Mist
9:00 AM 64.4 °F - 59.0 °F 83% 29.92 in 1.9 mi SE 2.3 mph - N/A   Mist
10:00 AM 71.6 °F - 57.2 °F 60% 29.95 in 1.9 mi ESE 6.9 mph - N/A   Haze
11:00 AM 75.2 °F - 57.2 °F 53% 29.89 in 3.7 mi SSE 6.9 mph - N/A   Scattered Clouds
2:00 PM 81 °F - 54 °F 29% 29.85 in 6 mi SE 8.1 mph - -   Scattered Clouds
2:00 PM 80.6 °F 80.3 °F 53.6 °F 39% 29.83 in 6.2 mi SE 8.1 mph - N/A   Scattered Clouds
3:00 PM 80.6 °F 80.3 °F 53.6 °F 39% 29.83 in 6.2 mi SE 8.1 mph - N/A   Scattered Clouds
4:00 PM 80.6 °F 80.3 °F 53.6 °F 39% 29.83 in 6.2 mi SE 8.1 mph - N/A   Scattered Clouds
5:00 PM 75 °F - 55 °F 39% 29.80 in 6 mi SE 5.8 mph - -   Scattered Clouds
5:00 PM 75.2 °F - 55.4 °F 50% 29.80 in 6.2 mi SE 5.8 mph - N/A   Partly Cloudy
6:00 PM 69.8 °F - 55.4 °F 60% 29.80 in - SE 3.5 mph - N/A   Clear
7:00 PM 68.0 °F - 53.6 °F 60% 29.80 in - ESE 6.9 mph - N/A   Clear
8:00 PM 67 °F - 54 °F 53% 29.80 in 6 mi SSE 6.9 mph - -  
8:00 PM 66.2 °F - 53.6 °F 64% 29.80 in - SSE 6.9 mph - N/A   Clear
8:30 PM 66.2 °F - 53.6 °F 64% 29.80 in - SSE 6.9 mph - N/A   Clear
9:00 PM 64.4 °F - 50.0 °F 59% 29.80 in - South 3.5 mph - N/A   Clear
10:00 PM 64.4 °F - 48.2 °F 56% 29.83 in - SSE 3.5 mph - N/A   Clear
11:00 PM 61 °F - 48 °F 53% 29.82 in 6 mi SE 5.8 mph - -  
11:00 PM 60.8 °F - 48.2 °F 63% 29.80 in - SE 5.8 mph - N/A   Clear